Showing default

COSMOS 2459 (GLONASS), 36400

Orbit data source: Space-Track

COSMOS 2459 (GLONASS), 36400 is a Commonwealth of Independent States-origin payload satellite in MEO that was launched on Mon, 01 Mar 2010 UTC via a PROTON-M/DM-2 launch vehicle from the Tyuratam Missile And Space Complex (TTMTR). Payload-class satellites include a variety of spacecraft equipped with specific instruments for various scientific and technological missions. These include communications satellites like Starlink; space stations such as the ISS; scientific satellites like the Hubble; Earth observation satellites from companies like Planet Labs, Umbra, and HawkEye 360; GPS; miniature CubeSats for education and research; and military/defense satellites.

Loading next visibility...
Identifier
36400, 2010-007A
Orbit
MEO
Country
Flag of CISCIS
Related business
Manufacturer
Resehetnev ISS
Mission
Non-operational Defense Navigation
Bus & Motor
URAGAN, Unknown motor
Mass
1,450 kg wet, ~1,200 kg dry
Launch date (UTC)
2010-03-01 (16 years ago)
Launch vehicle
PROTON-M/DM-2
Launch site
Tyuratam Missile And Space Complex (TTMTR)
Object type
Payload
Rocket body
Debris
Shape & HBR
Cyl + 1 Ant + 2 Pan, 3.9 m
Radar Cross Section
8.467 m², Large (>1 m²)

Expand to show TLE details & history
Last TLE update: 1 day ago

TLE from 1 day ago
0 COSMOS 2459 (GLONASS)
1 36400U 10007A   25305.42322968 -.00000003  00000-0  00000-0 0  9996
2 36400  65.5716 322.2792 0025568 342.2344  18.1992  2.13116779121977
Epoch: 2025-11-01T10:09Z
TLE epoch observation values (Epoch: 2025-11-01T10:09:27.044Z)
Latitude
0.42896°
Longitude
129.16889°
Altitude
19,067.353 km
Speed
3.963 km/s
True Right ascension
21h 29m 56s
True Declination
0° 25' 42"
Sunlit
Object was in daylight at epoch
Visualization orbit readout
Latitude
Unknown
Longitude
Unknown
Altitude
Unknown
Speed
Unknown
Apparent Right ascension
Unknown
Apparent Declination
Unknown
Sunlit
N/A
Visualization observer readout
Local Sidereal Time
10:42:42
Azimuth
Unknown
Elevation
Unknown
Doppler factor
Unknown
Orbital elements
Apogee altitude
19,193.518 km
Perigee altitude
19,063.089 km
Semi-major axis
25,506.44 km
Eccentricity
0.00256
Inclination
65.5716°
RAAN
322.2792°
Arg. of periapsis
342.2344°
True anomaly
18.29099°
Mean anomaly
18.1992°
Eccentric anomaly
18.24506°
Mean motion
0.53281 °/min
Orbital period
675.67 mins
BSTAR
0
Loading maneuver chart data...
Computing Atmospheric mass density...
Loading historical data...
Loading historical data...
Loading historical data...
Loading historical data...
Loading historical data...
Loading historical data...
Loading historical data...

Documentation

Showing up to 5 results
|